• Processing (Info)

  • MPEC 2022-P08 : 2022 OE5

    The following Minor Planet Electronic Circular may be linked-to from your own Web pages, but must not otherwise be redistributed electronically.

    A form allowing access to any MPEC is at the bottom of this page.


    Read MPEC 2022-P07 Read MPEC 2022-P09


    M.P.E.C. 2022-P08                                Issued 2022 August 1, 17:46 UT
    
         The Minor Planet Electronic Circulars contain information on unusual
             minor planets and routine data on comets.  They are published
        on behalf of Division F of the International Astronomical Union by the
              Minor Planet Center, Smithsonian Astrophysical Observatory,
                              Cambridge, MA 02138, U.S.A.
    
                 Prepared using the Tamkin Foundation Computer Network
    
                                  MPC@CFA.HARVARD.EDU
                URL https://www.minorplanetcenter.net/    ISSN 1523-6714
    
                                    2022 OE5                                 
    
    
    Observations:
         K22O05E* C2022 07 26.56410023 57 15.391-27 33 16.07         20.73wUEP008F52
         K22O05E  C2022 07 26.57370723 57 13.514-27 32 33.76         21.04wUEP008F52
         K22O05E  C2022 07 26.58325523 57 11.643-27 31 51.26         21.05wUEP008F52
         K22O05E  C2022 07 26.59276623 57 09.769-27 31 09.00         21.64wUEP008F52
         K22O05E ^C2022 07 27.53803223 54 38.747-26 22 49.54         21.16GVEP008568
         K22O05E ^C2022 07 27.53903123 54 38.558-26 22 45.38         21.12GVEP008568
         K22O05E ^C2022 07 27.54002923 54 38.367-26 22 41.15         21.09GVEP008568
         K22O05E ^C2022 07 27.54102723 54 38.178-26 22 36.97         21.09GVEP008568
         K22O05E |C2022 07 31.42338 23 44 52.39 -22 11 33.6          21.0 GVEP008807
         K22O05E |C2022 07 31.42730 23 44 51.78 -22 11 19.7          20.9 GVEP008807
         K22O05E |C2022 07 31.43123 23 44 51.12 -22 11 05.4          20.9 GVEP008807
         K22O05E ^C2022 07 31.50340023 44 44.881-22 07 46.56         20.98GVEP008568
         K22O05E ^C2022 07 31.50437723 44 44.721-22 07 43.19         21.11GVEP008568
         K22O05E ^C2022 07 31.50535623 44 44.548-22 07 39.60         21.20GVEP008568
    
    Observer details:
    568 Mauna Kea.  Observers R. Wainscoat, A. Acohido, T. Burdullis, L. Wells, H.
        Flewelling.  Measurers R. Weryk, R. Wainscoat.  3.6-m Canada-France-Hawaii
        Telescope + CCD.
    807 Cerro Tololo Observatory, La Serena.  Observers T. Linder, R. Holmes, L.
        Horn.  1.00-m f/10.0 astrograph + CCD.
    F52 Pan-STARRS 2, Haleakala.  Observers J. Bulger, T. Lowe, A. Schultz, I.
        Smith.  Measurers K. Chambers, S. Chastel, T. de Boer, J. Fairlamb, H.
        Gao, M. Huber, C.-C. Lin, E. Magnier, Y. Ramanjooloo, R. Wainscoat, R.
        Weryk.  1.8-m Ritchey-Chretien + CCD.
    
    Orbital elements:
    2022 OE5                                                 Earth MOID = 0.0770 AU
    Epoch 2022 Aug. 9.0 TT = JDT 2459800.5                  MPC                     
    M  14.79635              (2000.0)            P               Q                  
    n   0.32684342     Peri.  294.83201     +0.03526254     +0.99872129             
    a   2.0872584      Node   337.10087     -0.88001953     +0.01385159             
    e   0.5062025      Incl.    5.34197     -0.47362663     +0.04862009             
    P   3.02           H   23.86          G   0.15           U   8                  
    Residuals in seconds of arc
    220726 F52  0.0   0.0     220727 568  0.0   0.0     220731 807  0.1-  0.1+
    220726 F52  0.1+  0.1-    220727 568  0.0   0.0     220731 568  0.0   0.1-
    220726 F52  0.1+  0.1+    220727 568  0.0   0.0     220731 568  0.1+  0.0
    220726 F52  0.0   0.2+    220731 807  0.2-  0.0     220731 568  0.1-  0.2+
    220727 568  0.0   0.0     220731 807  0.2+  0.1-
    
    Ephemeris:
    2022 OE5                 a,e,i = 2.09, 0.51, 5                   q = 1.0307
    Date    TT    R. A. (2000) Decl.     Delta      r    Elong.  Phase     V
    2022 07 02    03 49 24.0 -72 42 14   0.08261 1.0344   100.1    75.4    21.2
    ...
    2022 07 17    00 30 23.4 -42 19 09   0.09707 1.0647   117.5    57.8    21.0
    ...
    2022 07 25    00 01 39.0 -29 32 30   0.1170  1.0922   128.3    46.9    21.2
    ...
    2022 07 31    23 45 55.3 -22 36 52   0.1356  1.1172   136.3    38.9    21.3
    2022 08 01    23 43 33.3 -21 38 31   0.1390  1.1217   137.7    37.5    21.3
    2022 08 02    23 41 14.8 -20 42 55   0.1424  1.1263   139.0    36.2    21.4
    ...
    2022 08 08    23 28 24.3 -16 00 19   0.1649  1.1557   146.9    28.6    21.5
    ...
    2022 08 16    23 13 29.5 -11 31 38   0.1994  1.1991   157.3    19.1    21.7
    ...
    2022 08 31    22 51 46.6 -06 43 04   0.2812  1.2901   175.5     3.5    22.0
    
    M. P. C. Staff               (C) Copyright 2022 MPC           M.P.E.C. 2022-P08
    


    Read MPEC 2022-P07 Read MPEC 2022-P09


    MPEC number:

    Enter an MPEC number in one of the following forms:

    • 1997-B01 (the full form)
    • J97B01 (the packed version of the full form)
    • B01 (the abbreviated form)